Weather in Natashino

Russia / Republic of Crimea     45°24′28″N   33°16′17″E
temp.,
°C
wind,
m/s
gust,
m/s
humid.,
%
clouds,
%
prec.,
mm/h
press.,
hPa
HPBL,
m
1 march, mon
mon100:00+3nw3677100 0.1 1025382
03:00+2wnw3676100 0.1 1024151
06:000w128678 0.0 102422
09:00+3nw128289 0.0 1025231
12:00+3nne1289100 0.3 1026238
15:00+6n2264100 0.4 1026879
18:00+5nne566395 0.1 1027616
21:00+2nne367866 0.1 1029114
2 march, tue
tue200:00+1ene23870 0.0 103032
03:000nne22884 0.0 103123
06:00−1nne22865 0.0 103022
09:00+2nw11702 0.0 1031141
12:00+5nw445427 0.0 10301068
15:00+6w565819 0.0 1029959
18:00+3w58690 0.0 1026722
21:00+2wsw5118234 0.0 1026400
3 march, wed
wed300:00+3wsw6138414 0.0 1024389
03:00+4wnw5128729 0.0 1023348
06:00+3nnw6108019 0.0 1023683
09:00+4nnw6116460 0.0 10251344
12:00+6n795620 0.0 1026930
15:00+8nnw674810 0.0 10271086
18:00+6nw46560 0.0 1027352
21:00+3wnw34760 0.0 102971
4 march, thu
thu400:00+3nw22780 0.0 102822
03:00+1w22800 0.0 102822
06:00+1wsw22820 0.0 102722
09:00+5ssw35680 0.0 1026244
12:00+8sw67500 0.0 1024957
15:00+8sw78510 0.0 1022888
18:00+6sw710630 0.0 1020708
21:00+5ssw712750 0.0 1020524
5 march, fri
fri500:00+4ssw713810 0.0 1019528
03:00+4ssw713820 0.0 1017501
06:00+4ssw713862 0.0 1016450
09:00+6ssw8137839 0.0 1015574
12:00+9ssw10146778 0.0 1014694
15:00+10ssw10146588 0.0 1013705
18:00+8ssw9147756 0.0 1012592
21:00+7ssw8148658 0.0 1012489